Regional Weather Roundup
Issued by NWS Sioux Falls, SD

Home | Current Version | Previous Version | Graphics & Text | Print | Product List | Glossary Off
Versions: 1 2 3 4 5 6 7 8 9 10 11 12 13 14 15 16 17 18 19 20 21 22 23 24 25 26 27 28 29 30 31 32 33 34 35 36 37 38 39 40 41 42 43 44 45 46 47 48 49 50

000
ASUS43 KFSD 250910
RWRFSD

WEATHER ROUNDUP FOR SE SOUTH DAKOTA/SW MINNESOTA/NW IOWA
NATIONAL WEATHER SERVICE SIOUX FALLS SD
300 AM CST SUN FEB 25 2018

NOTE: "FAIR" INDICATES FEW OR NO CLOUDS BELOW 12,000 FEET WITH NO
SIGNIFICANT WEATHER AND OR OBSTRUCTIONS TO VISIBILITY.


SDZ038>040-050-052>070-251000-
SOUTHEAST SOUTH DAKOTA

CITY           SKY/WX    TMP DP  RH WIND       PRES   REMARKS
BROOKINGS      CLEAR      7   4  87 SW10      29.63F WCI  -8
CHAMBERLAIN    CLEAR     19  12  72 SW12      29.72R WCI   7
HURON          CLEAR     11   6  81 W10       29.68S WCI  -3
MADISON        FAIR       9   9 100 W15       29.64S WCI  -8
MITCHELL       CLEAR     16   9  74 W15       29.72S WCI   1
SIOUX FALLS    CLEAR     11   5  77 W15G21    29.70R WCI  -5
WINNER         FAIR      24  10  55 W17       29.73S WCI  11
YANKTON        CLOUDY    22  13  68 SW14      29.76R WCI   9
$$

MNZ071-072-080-081-089-090-097-098-251000-
SOUTHWEST MINNESOTA

CITY           SKY/WX    TMP DP  RH WIND       PRES   REMARKS
FAIRMONT       PTCLDY    16  12  86 W22       29.66R WCI  -2
JACKSON        CLOUDY    18  14  86 W16       29.64S FOG     WCI   3
LUVERNE        CLEAR      9   3  78 SW9       29.70S WCI  -5
MARSHALL       CLEAR     15  11  83 W20       29.61S WCI  -2
MONTEVIDEO     CLEAR     14  12  92 NW10      29.58F WCI   1
PIPESTONE      CLEAR      7   3  85 W8        29.63F WCI  -6
REDWOOD FALLS  CLEAR     15  12  88 W13       29.60S WCI   1
TRACY          CLEAR     17  14  88 W16G22    29.61R FOG     WCI   1
WORTHINGTON    CLEAR     13  10  88 W20       29.64S WCI  -5
$$

IAZ001>003-012>014-020>022-031-032-NEZ013-014-SDZ071-251000-
NORTHWEST IOWA

CITY           SKY/WX    TMP DP  RH WIND       PRES   REMARKS
CHEROKEE       CLEAR     13  11  90 SW7       29.75S WCI   3
DENISON        CLEAR     19  14  79 SW12      29.82S WCI   7
ESTHERVILLE    PTCLDY    15  13  91 W26G35    29.66S FOG     WCI  -4
LE MARS        CLEAR     18  10  73 SW10      29.77F WCI   6
ORANGE CITY    CLEAR     16  12  86 W15       29.73S WCI   1
SHELDON        CLEAR      9   7  92 SW13      29.71R WCI  -7
SIOUX CITY     CLEAR     17   9  70 W3        29.80S
SPENCER        CLEAR     13   8  81 W18       29.70S WCI  -4
STORM LAKE     CLEAR     14  10  85 W15       29.74S WCI  -1
$$

ABBREVIATIONS USED IN REMARKS
   TC - TEMPERATURE IN CELSIUS
  WCI - WIND CHILL INDEX
   HX - HEAT INDEX
  VSB - VISIBILITY





USA.gov is the U.S. government's official web portal to all federal, state and local government web resources and services.